Whiteman AFB, MO

9:16 PM CST on February 19, 2017 (GMT -0600)
Whiteman Air Force Base

Weather History for KSZL - October, 2013

Change the Weather History Date:

Wednesday, October 16, 2013

  Actual Average Record
Temperature  
Mean Temperature 50 °F -  
Max Temperature 58 °F 65 °F 85 °F (2016)
Min Temperature 41 °F 45 °F 33 °F (2002)
Degree Days  
Heating Degree Days 16    
Moisture  
Dew Point 42 °F    
Average Humidity 75    
Maximum Humidity 95    
Minimum Humidity 52    
Precipitation  
Precipitation 0.06 in - - ()
Sea Level Pressure  
Sea Level Pressure 30.05 in    
Wind  
Wind Speed 4 mph (West)    
Max Wind Speed 12 mph    
Max Gust Speed -    
Visibility 10 miles    
Events Rain    
Averages and records for this station are not official NWS values.
T = Trace of Precipitation, MM = Missing Value Source: NWS Daily Summary

Daily Weather History Graph

Daily Weather History Graph

Search for Another Location

Airport or City:

Trip Planner

Search our weather history database for the weather conditions in past years. The results will help you decide how hot, cold, wet, or windy it might be!

Date:

Astronomy

Oct. 16, 2013 Rise Set
Actual Time 7:24 AM CDT 6:34 PM CDT
Civil Twilight 6:57 AM CDT 7:00 PM CDT
Nautical Twilight 6:26 AM CDT 7:31 PM CDT
Astronomical Twilight 5:56 AM CDT 8:02 PM CDT
Moon 5:13 PM CDT (10/16) 4:54 AM CDT (10/16)
Length of Visible Light 12h 02m
Length of Day
11h 09m
Waxing Gibbous, 94% of the Moon is Illuminated
Oct 16
Waxing Gibbous
Oct 18
Full
Oct 26
Last Quarter
Nov 3
New
Nov 9
First Quarter

Hourly Weather History & Observations

Time (CDT) Temp. Windchill Dew Point Humidity Pressure Visibility Wind Dir Wind Speed Gust Speed Precip Events Conditions
12:58 AM 44.8 °F 42.4 °F 38.5 °F 79% 30.07 in 10.0 mi WSW 4.6 mph - N/A   Partly Cloudy
1:58 AM 43.0 °F 40.3 °F 38.3 °F 84% 30.07 in 10.0 mi WSW 4.6 mph - N/A   Partly Cloudy
2:58 AM 41.4 °F 39.4 °F 38.1 °F 88% 30.07 in 10.0 mi SW 3.5 mph - N/A   Scattered Clouds
3:58 AM 41.0 °F - 37.8 °F 88% 30.06 in 10.0 mi SW 1.2 mph - N/A   Partly Cloudy
4:58 AM 41.9 °F 39.0 °F 38.7 °F 88% 30.06 in 10.0 mi SW 4.6 mph - N/A   Scattered Clouds
5:58 AM 43.5 °F 40.1 °F 39.4 °F 85% 30.06 in 10.0 mi WSW 5.8 mph - N/A   Mostly Cloudy
6:58 AM 44.4 °F 42.0 °F 40.1 °F 85% 30.07 in 10.0 mi West 4.6 mph - N/A   Mostly Cloudy
7:58 AM 45.7 °F 42.7 °F 39.7 °F 80% 30.07 in 10.0 mi WNW 5.8 mph - N/A   Mostly Cloudy
8:58 AM 47.7 °F - 38.5 °F 70% 30.11 in 10.0 mi NNW 9.2 mph - N/A   Overcast
9:58 AM 48.4 °F - 38.3 °F 68% 30.12 in 10.0 mi WNW 10.4 mph - N/A   Overcast
10:56 AM 50.0 °F - 39.2 °F 66% 30.10 in 10.0 mi WNW 11.5 mph - N/A   Overcast
11:58 AM 51.1 °F - 39.4 °F 64% 30.12 in 10.0 mi WNW 8.1 mph - N/A   Overcast
12:38 PM 53.6 °F - 39.2 °F 58% 30.07 in 10.0 mi West 6.9 mph - N/A   Scattered Clouds
12:58 PM 54.1 °F - 40.3 °F 59% 30.09 in 10.0 mi West 5.8 mph - N/A   Partly Cloudy
1:58 PM 55.6 °F - 40.3 °F 56% 30.06 in 10.0 mi West 4.6 mph - N/A   Scattered Clouds
2:58 PM 58.3 °F - 40.8 °F 52% 30.02 in 10.0 mi Variable 5.8 mph - N/A   Partly Cloudy
3:58 PM 58.3 °F - 41.2 °F 53% 30.01 in 10.0 mi Variable 4.6 mph - N/A   Scattered Clouds
4:58 PM 57.6 °F - 41.2 °F 54% 30.01 in 10.0 mi NNW 8.1 mph - N/A   Scattered Clouds
5:58 PM 55.2 °F - 41.2 °F 59% 30.01 in 10.0 mi Calm Calm - N/A   Mostly Cloudy
6:58 PM 54.0 °F - 43.2 °F 67% 30.02 in 10.0 mi NNW 3.5 mph - N/A   Overcast
7:27 PM 53.6 °F - 44.6 °F 72% 30.01 in 10.0 mi North 3.5 mph - N/A   Light Drizzle
7:58 PM 53.6 °F - 42.6 °F 66% 30.04 in 10.0 mi North 3.5 mph - 0.00 in   Mostly Cloudy
8:27 PM 51.8 °F - 46.4 °F 82% 30.03 in 10.0 mi Calm Calm - N/A   Light Drizzle
8:53 PM 53.6 °F - 46.4 °F 77% 30.03 in 10.0 mi Calm Calm - N/A Rain Light Rain
8:58 PM 52.7 °F - 47.3 °F 82% 30.04 in 10.0 mi Calm Calm - 0.00 in Rain Light Rain
9:58 PM 49.8 °F - 46.9 °F 90% 30.04 in 10.0 mi South 2.3 mph - 0.05 in   Light Drizzle
10:02 PM 50.0 °F - 46.4 °F 87% 30.02 in 10.0 mi South 2.3 mph - N/A   Mostly Cloudy
10:17 PM 50.0 °F - 46.4 °F 87% 30.01 in 10.0 mi Variable 2.3 mph - N/A   Light Drizzle
10:40 PM 50.0 °F - 46.4 °F 87% 30.01 in 10.0 mi Calm Calm - N/A   Overcast
10:58 PM 48.9 °F - 47.5 °F 95% 30.01 in 10.0 mi Calm Calm - 0.01 in   Light Drizzle
11:07 PM 48.2 °F - 46.4 °F 93% 30.01 in 10.0 mi East 2.3 mph - N/A   Mostly Cloudy
11:58 PM 48.4 °F - 46.4 °F 93% 30.02 in 10.0 mi SE 2.3 mph - 0.00 in   Mostly Cloudy